This demonstration page uses our WeatherBlox Daily Observations layout. Learn more.

Left ArrowRight Arrow

39.01783, -85.05884

Hourly Observations for January 16, 2020

Temp ( °F °C ) Dew Point ( °F °C ) Humidity (%) Winds ( mph kmh ) Pressure ( in mb ) Visibility ( mi km ) Precip ( " mm )
12:52 am 00:52 Cloudy 46 7.8 39 3.9 77 77 WNW 15 24 30.20 1023 10 16 0.00 0.00
1:52 am 01:52 Cloudy 43 6.1 37 2.8 80 80 WNW 20 31 30.23 1024 10 16 0.00 0.00
2:24 am 02:24 Cloudy 42 5.6 37 2.8 82 82 NW 20 31 30.29 1026 10 16 0.00 0.00
2:52 am 02:52 Cloudy 41 5 35 1.7 79 79 WNW 20 31 30.28 1025 10 16 0.00 0.00
3:52 am 03:52 Cloudy 41 5 33 0.6 73 73 WNW 12 19 30.31 1026 10 16 0.00 0.00
4:52 am 04:52 Cloudy 39 3.9 31 -0.6 73 73 NW 15 24 30.34 1028 10 16 0.00 0.00
5:52 am 05:52 Cloudy 38 3.3 29 -1.7 70 70 NW 12 19 30.37 1028 10 16 0.00 0.00
6:52 am 06:52 Cloudy 37 2.8 28 -2.2 70 70 NW 10 17 30.42 1030 10 16 0.00 0.00
7:52 am 07:52 Cloudy 35 1.7 27 -2.8 72 72 WNW 15 24 30.45 1031 10 16 0.00 0.00
8:52 am 08:52 Cloudy 34 1.1 26 -3.3 73 73 WNW 17 28 30.48 1032 10 16 0.00 0.00
9:52 am 09:52 Mostly Cloudy 34 1.1 25 -3.9 70 70 W 18 30 30.49 1033 10 16 0.00 0.00
10:52 am 10:52 Mostly Cloudy 35 1.7 24 -4.4 64 64 WNW 16 26 30.54 1034 9 14 0.00 0.00
11:52 am 11:52 Partly Cloudy 36 2.2 24 -4.4 62 62 WNW 17 28 30.54 1034 10 16 0.00 0.00
12:52 pm 12:52 Mostly Sunny 37 2.8 23 -5 57 57 NW 17 28 30.53 1034 10 16 0.00 0.00
1:52 pm 13:52 Mostly Sunny 39 3.9 21 -6.1 48 48 WNW 18 30 30.53 1034 10 16 0.00 0.00
2:52 pm 14:52 Sunny 39 3.9 21 -6.1 48 48 WNW 15 24 30.53 1034 10 16 0.00 0.00
3:52 pm 15:52 Mostly Sunny 39 3.9 18 -7.8 43 43 NW 15 24 30.55 1035 10 16 0.00 0.00
4:52 pm 16:52 Mostly Sunny 37 2.8 19 -7.2 48 48 NW 14 22 30.58 1035 10 16 0.00 0.00
5:52 pm 17:52 Mostly Clear 34 1.1 18 -7.8 52 52 NW 13 20 30.60 1036 10 16 0.00 0.00
6:52 pm 18:52 Mostly Clear 32 0 19 -7.2 59 59 WNW 9 15 30.63 1037 10 16 0.00 0.00
7:52 pm 19:52 Partly Cloudy 30 -1.1 18 -7.8 61 61 NNW 8 13 30.65 1038 10 16 0.00 0.00
8:52 pm 20:52 Partly Cloudy 29 -1.7 18 -7.8 63 63 NNW 12 19 30.68 1039 10 16 0.00 0.00
9:52 pm 21:52 Partly Cloudy 28 -2.2 18 -7.8 66 66 NNW 13 20 30.69 1039 10 16 0.00 0.00
10:52 pm 22:52 Mostly Clear 26 -3.3 18 -7.8 71 71 N 14 22 30.71 1040 9 14 0.00 0.00
11:52 pm 23:52 Mostly Clear 25 -3.9 17 -8.3 72 72 N 9 15 30.71 1040 8 13 0.00 0.00

Powered by AerisWeather